View from above orbital plane
|
View from above satellite
|
Ground track
|
The orbit data is extracted from the following two-line orbital elements,
1 37756U 11037B 21065.95968639 .00000267 00000-0 81158-4 0 9991
2 37756 51.4484 43.9097 1902763 211.8937 135.1453 11.26797605396247
Epoch (UTC): | 06 March 2021 23:01:56 |
Eccentricity: | 0.1902763 |
inclination: | 51.4484° |
perigee height: | 427 km |
apogee height: | 3625 km |
right ascension of ascending node: | 43.9097° |
argument of perigee: | 211.8937° |
revolutions per day: | 11.26797605 |
mean anomaly at epoch: | 135.1453° |
orbit number at epoch: | 39624 |
The dashed part of the orbit path shows where the satellite is in the earth's shadow,
|
|